User: anonymous   Login
Location: Firnhaberau
(48.4049°N, 10.8963°E)
Time: 16:22:28
(UTC+00:00)
Language:

CZ-4C R/B - Orbit

View from above orbital plane
View from above orbital plane
View from above satellite
View from above satellite

Ground track
Ground track

The orbit data is extracted from the following two-line orbital elements,

1 36416U 10009D   21173.59906579 -.00000111  00000-0  11593-5 0  9992
2 36416  63.4204 285.4616 0531340 355.6188   4.0291 13.69594706565018
Epoch (UTC): 22 June 2021 14:22:39
Eccentricity: 0.0531340
inclination: 63.4204°
perigee height: 609 km
apogee height: 1393 km
right ascension of ascending node: 285.4616°
argument of perigee: 355.6188°
revolutions per day: 13.69594706
mean anomaly at epoch: 4.0291°
orbit number at epoch: 56501

The dashed part of the orbit path shows where the satellite is in the earth's shadow,  

DLR